Weather History for Anoka County, MN

Change the Weather History Date:

Wednesday, January 16, 2013

  Actual Average Record
Temperature  
Mean Temperature 26 °F -  
Max Temperature 37 °F 20 °F 37 °F (1999)
Min Temperature 12 °F 5 °F -23 °F (2009)
Degree Days  
Heating Degree Days 40    
Moisture  
Dew Point 16 °F    
Average Humidity 70    
Maximum Humidity 100    
Minimum Humidity 40    
Precipitation  
Precipitation 0.00 in - - ()
Sea Level Pressure  
Sea Level Pressure 29.85 in    
Wind  
Wind Speed 13 mph (WSW)    
Max Wind Speed 17 mph    
Max Gust Speed 26 mph    
Visibility 9 miles    
Events Snow    
Averages and records for this station are not official NWS values.
T = Trace of Precipitation, MM = Missing Value Source: NWS Daily Summary

Daily Weather History Graph

Daily Weather History Graph

Search for Another Location

Airport:

Trip Planner

Search our weather history database for the weather conditions in past years. The results will help you decide how hot, cold, wet, or windy it might be!

Date:

Astronomy

Jan. 16, 2013 Rise Set
Actual Time 7:47 AM CST 4:58 PM CST
Civil Twilight 7:14 AM CST 5:31 PM CST
Nautical Twilight 6:38 AM CST 6:07 PM CST
Astronomical Twilight 6:02 AM CST 6:43 PM CST
Moon 10:06 AM CST (1/16) 11:09 PM CST (1/16)
Length of Visible Light 10h 17m
Length of Day
9h 11m
Waxing Crescent, 28% of the Moon is Illuminated
Jan 16
Waxing Crescent
Jan 18
First Quarter
Jan 26
Full
Feb 3
Last Quarter
Feb 10
New

Hourly Weather History & Observations

Time (CST) Temp. Windchill Dew Point Humidity Pressure Visibility Wind Dir Wind Speed Gust Speed Precip Events Conditions
12:14 AM 26.6 °F 14.7 °F 19.4 °F 74% 29.78 in 10.0 mi SSW 15.0 mph 19.6 mph N/A   Clear
12:34 AM 26.6 °F 15.2 °F 19.4 °F 74% 29.77 in 10.0 mi South 13.8 mph 18.4 mph N/A   Scattered Clouds
12:54 AM 26.6 °F 14.7 °F 19.4 °F 74% 29.75 in 10.0 mi South 15.0 mph 20.7 mph N/A   Mostly Cloudy
1:14 AM 26.6 °F 13.8 °F 19.4 °F 74% 29.73 in 10.0 mi South 17.3 mph 23.0 mph N/A   Mostly Cloudy
1:34 AM 26.6 °F 15.2 °F 19.4 °F 74% 29.72 in 10.0 mi South 13.8 mph 20.7 mph N/A   Overcast
1:54 AM 26.6 °F 14.3 °F 19.4 °F 74% 29.71 in 10.0 mi South 16.1 mph 19.6 mph N/A   Overcast
2:34 AM 26.6 °F 14.3 °F 19.4 °F 74% 29.70 in 10.0 mi South 16.1 mph 20.7 mph N/A Snow Light Snow
2:54 AM 26.6 °F 13.8 °F 19.4 °F 74% 29.67 in 10.0 mi South 17.3 mph 26.5 mph N/A   Overcast
3:13 AM 26.6 °F 14.3 °F 19.4 °F 74% 29.66 in 10.0 mi South 16.1 mph - N/A   Overcast
3:34 AM 26.6 °F 15.2 °F 21.2 °F 80% 29.66 in 10.0 mi SSW 13.8 mph 19.6 mph N/A   Overcast
3:54 AM 26.6 °F 16.2 °F 23.0 °F 86% 29.65 in 4.0 mi SSW 11.5 mph 18.4 mph N/A   Overcast
4:34 AM 28.4 °F 18.5 °F 24.8 °F 86% 29.64 in 7.0 mi SSW 11.5 mph - N/A   Overcast
4:54 AM 28.4 °F 17.5 °F 24.8 °F 86% 29.63 in 4.0 mi SW 13.8 mph 20.7 mph N/A   Overcast
5:13 AM 28.4 °F 18.5 °F 26.6 °F 93% 29.63 in 2.5 mi SW 11.5 mph 19.6 mph N/A Snow Light Snow
5:34 AM 28.4 °F 18.5 °F 26.6 °F 93% 29.63 in 1.8 mi SW 11.5 mph 16.1 mph N/A Snow Light Snow
5:54 AM 28.4 °F 19.1 °F 26.6 °F 93% 29.63 in 4.0 mi SW 10.4 mph - N/A Snow Light Snow
6:34 AM 28.4 °F 19.7 °F 28.4 °F 100% 29.63 in 4.0 mi SW 9.2 mph - N/A Snow Light Snow
6:50 AM 30.2 °F 22.6 °F 28.4 °F 93% 29.64 in 10.0 mi SW 8.1 mph - N/A   Overcast
6:54 AM 30.2 °F 24.3 °F 28.4 °F 93% 29.64 in 10.0 mi SW 5.8 mph - N/A   Overcast
8:50 AM 32.0 °F 26.4 °F 30.2 °F 93% 29.68 in 10.0 mi SW 5.8 mph - N/A   Overcast
9:55 AM 35.6 °F 28.6 °F 33.8 °F 93% 29.68 in 10.0 mi WSW 9.2 mph - N/A   Overcast
10:45 AM 37.4 °F 28.2 °F 32.0 °F 81% 29.71 in 10.0 mi West 16.1 mph 24.2 mph N/A   Overcast
11:45 AM 37.4 °F 27.8 °F 28.4 °F 70% 29.74 in 10.0 mi WNW 17.3 mph 20.7 mph N/A   Overcast
12:55 PM 33.8 °F 23.9 °F 24.8 °F 70% 29.77 in 10.0 mi NW 15.0 mph 18.4 mph N/A   Overcast
1:55 PM 32.0 °F 22.5 °F 24.8 °F 75% 29.80 in 10.0 mi WNW 12.7 mph - N/A   Overcast
2:45 PM 30.2 °F 21.3 °F 23.0 °F 75% 29.84 in 10.0 mi NW 10.4 mph - N/A   Overcast
3:45 PM 30.2 °F 20.2 °F 17.6 °F 60% 29.89 in 10.0 mi NW 12.7 mph - N/A   Mostly Cloudy
4:45 PM 28.4 °F 23.3 °F 6.8 °F 40% 29.95 in 10.0 mi NW 4.6 mph - N/A   Scattered Clouds
5:45 PM 26.6 °F 16.2 °F 10.4 °F 51% 30.00 in 10.0 mi NW 11.5 mph - N/A   Clear
6:45 PM 23.0 °F 12.4 °F 6.8 °F 50% 30.05 in 10.0 mi NW 10.4 mph - N/A   Clear
7:45 PM 21.2 °F 11.7 °F 3.2 °F 46% 30.10 in 10.0 mi NW 8.1 mph - N/A   Clear
8:45 PM 19.4 °F 10.4 °F 3.2 °F 49% 30.12 in 10.0 mi WNW 6.9 mph - N/A   Clear
9:14 PM 17.6 °F 5.7 °F 3.2 °F 53% 30.14 in 10.0 mi WNW 10.4 mph - N/A   Clear
9:34 PM 17.6 °F 7.3 °F 3.2 °F 53% 30.14 in 10.0 mi WNW 8.1 mph - N/A   Clear
9:54 PM 17.6 °F 6.4 °F 1.4 °F 49% 30.16 in 10.0 mi WNW 9.2 mph - N/A   Clear
10:14 PM 15.8 °F 3.4 °F -0.4 °F 49% 30.16 in 10.0 mi WNW 10.4 mph - N/A   Clear
10:34 PM 15.8 °F 3.4 °F -2.2 °F 45% 30.16 in 10.0 mi WNW 10.4 mph - N/A   Clear
10:54 PM 15.8 °F 4.2 °F -0.4 °F 49% 30.19 in 10.0 mi WNW 9.2 mph - N/A   Clear
11:14 PM 14.0 °F -0.2 °F -2.2 °F 49% 30.21 in 10.0 mi WNW 12.7 mph - N/A   Clear
11:34 PM 14.0 °F 1.2 °F -2.2 °F 49% 30.20 in 10.0 mi WNW 10.4 mph - N/A   Clear
11:54 PM 12.2 °F -1.8 °F -4.0 °F 48% 30.22 in 10.0 mi NW 11.5 mph - N/A   Clear